Date,ERA_P(mm),ERA_E(mm),ERA_P-E(mm),ERA_Int_P(mm),ERA_Int_E(mm),ERA_Int_P-E(mm),MERRA_P(mm),MERRA_E(mm),MERRA_P-E(mm),CFSR_P(mm),CFSR_E(mm),CFSR_P-E(mm),NARR_P(mm),NARR_E(mm),NARR_P-E(mm),JRA_P(mm),JRA_E(mm),JRA_P-E(mm),Ens_Mean_P-E(mm),Ens_Mean_Runoffs(cms),Ens_Mean_NBS(cms),GLERL_P(mm),GLERL_E(mm),GLERL_P-E(mm),GLERL_Runoffs(cms),GLERL_NBS(cms),L2_P(mm),L2_E(mm),L2_P-E(mm),L2_Runoffs(cms),L2_NBS(cms),R_NBS(cms)
19790101,115.90316534002032,32.74169617519949,83.16146916482082,154.2612894813314,52.58002127771412,101.6812682036173,0.0,0.0,0.0,109.86670589474396,47.60316105976271,62.26354483498127,97.5839514150975,22.02734837891965,75.55660303617786,124.99385992402928,57.291572125037646,67.70228779899163,76.80092596844202,,,82.19,38.46,43.73,637.7,1056.5669168160096,91.7,42.840552,48.859448,813.2129256272401,1281.5297016875747,890.0
19790201,61.16605312675328,11.761709496599453,49.40434363015383,95.38337224541468,54.61221427025037,40.77115797516431,0.0,0.0,0.0,64.80728818649412,37.28789589231416,27.51939229417996,45.79927201517447,12.815360819284116,32.98391119589036,68.79103212332413,17.291294510206985,51.49973761311714,38.19354976958794,369.23999174684286,774.2728618438908,38.23,11.95,26.28,519.14,797.8327083333332,57.2,15.06189,42.138110000000005,577.9586226851852,1024.4152213541668,1530.0
19790301,73.83178711505305,7.73713028581625,66.0946568292368,109.58301677337458,38.37513830108405,71.20787847229053,0.0,0.0,0.0,113.4183744741164,8.645409510079578,104.77296496403682,60.2057668933255,3.7051399086165056,56.500626984709,66.37034703916422,12.415800864091548,53.95454617507267,71.60900414902724,652.3351467094955,1338.240538526735,68.73,9.43,59.3,2031.49,2599.4938455794504,71.3,9.659987,61.640012999999996,1389.8374029271206,1980.2022093413977,2640.0
19790401,151.17497319522198,28.5235881216534,122.65138507356858,203.7814387778188,59.5534403246693,144.22799845314952,0.0,0.0,0.0,167.0071627740004,14.709902078633997,152.2972606953664,88.06057741922952,8.057349068366308,80.00322835086321,128.883696960369,18.278691805842303,110.60500515452672,121.78337316347644,1275.3299714941531,2480.7128567213863,114.94,2.22,112.72,1758.58,2874.255771604938,126.0,4.986714,121.013286,1607.3966049382716,2804.5458072916667,3090.0
19790501,104.64431759943248,74.76795771592836,29.87635988350413,114.41439728779314,87.43870513702508,26.97569215076805,0.0,0.0,0.0,128.10974196430325,20.75087600971504,107.3588659545882,73.91246354486545,13.50518719788582,60.40727634697963,69.26473421681432,15.688204741879169,53.57652947493516,62.079590981817766,524.6122463385184,1119.2403476820573,95.98,9.08,86.9,667.07,1499.4398850059738,100.1,9.863057,90.236943,741.3743279569893,1605.812005114994,1410.0
19790601,63.87346296250327,132.7294488991672,-68.85598593666393,85.99089600082951,107.58583931205374,-21.59494331122424,0.0,0.0,0.0,80.68271332033312,29.217528225611748,51.46518509472137,27.2434748370349,45.73417977536941,-18.49070493833452,42.67151757766072,29.18616435749603,13.48535322016469,6.21622251633183,325.82065938400723,387.3473525385185,66.65,31.22,35.43000000000001,274.55,625.2277199074074,66.7,30.871201,35.828799000000004,396.9002700617284,757.3658871527778,920.0
19790701,88.20205440542921,141.4572710383216,-53.2552166328924,122.7795191227352,120.08609191710718,2.6934272056280197,0.0,0.0,0.0,87.40539490507373,46.63973023389416,40.76566467117958,36.19685707876942,47.5011212970918,-11.304264218322384,45.82724115801242,45.3404466328481,0.4867945251643171,8.160405545912385,270.14741331657336,348.3116920950912,61.29,48.17,13.119999999999996,286.84,412.5096535244922,73.0,49.601855,23.398145,342.9095728793309,572.5948108945639,370.0
19790801,144.23654148155785,136.59925416368975,7.637287317868079,135.38130555005986,133.4157059465478,1.9655996035120724,0.0,0.0,0.0,89.9167335868711,60.62677464795428,29.289958938916826,38.67953672584821,86.07029362263498,-47.390756896786776,70.17977475530844,59.38299271532581,10.796782039982636,-1.334604078593811,273.04128421963225,260.2578061594753,102.84,100.18,2.6599999999999966,396.47,421.94875597371566,102.4,99.629907,2.770093000000003,341.9517249103943,370.7551711842891,320.0
19790901,77.7745592239876,117.5717689141265,-39.7972096901389,114.51203631931004,117.74287207182138,-3.2308357525113656,0.0,0.0,0.0,65.66561948481001,56.73290869022485,8.93271079458516,31.119440384467485,89.55625339529296,-58.43681301082548,56.03222607015748,75.76767077994546,-19.735444709787984,-18.117595669634916,485.8736558065439,306.5499995933944,96.8,142.29,-45.49,437.65,-12.599209104938268,104.4,144.133773,-39.733772999999985,517.6529706790124,119.36899344135803,270.0
19791001,100.35812122582756,82.28605509203399,18.072066133793555,98.86569011824058,94.61380612782698,4.251883990413599,0.0,0.0,0.0,78.37398537071714,63.48209078966015,14.891894581056984,75.10625372736254,129.04345342821554,-53.937199700853,86.13585177761702,93.42342019791484,-7.287568420297838,-10.520247387420063,338.29805695457804,237.530081027061,89.12,197.85,-108.73,327.67,-713.7980966248506,113.6,204.395928,-90.795928,540.2262544802867,-326.38286402329743,-310.0
19791101,146.6023938411564,58.33368774591008,88.26870609524634,151.81188146993355,53.492730369561286,98.31915110037228,0.0,0.0,0.0,135.41951938980768,40.94685656464334,94.47266282516436,85.42333673207649,71.53517648011807,13.888160251958428,121.2811376316561,59.13672404868587,62.14441358297022,67.20609694011632,485.4386558162669,1150.6286315102038,115.8,126.34,-10.540000000000006,711.63,607.3075848765432,112.2,126.525257,-14.325256999999993,816.5653935185185,672.0273802083334,670.0
19791201,107.2778424878545,57.15558960133123,50.12225288652328,153.9114378688656,45.980522090283934,107.93091577858166,0.0,0.0,0.0,132.92442671646995,44.299785641490885,88.62464107497907,77.87159444241814,53.59162505784924,24.279969384568897,99.1686663538124,63.46569314989552,35.70297320391688,64.13462486051164,1122.6025555530382,1736.9147571646072,99.88,95.91,3.969999999999999,1300.82,1338.846564366786,105.7,96.900415,8.799585000000008,1276.8113425925928,1369.4639766278376,1960.0
19800101,43.29802825161912,45.486703915373326,-2.1886756637542,75.75440678785345,71.08111149813864,4.673295289714813,34.01607136558341,42.48949453704802,-8.473423171464624,48.225334361479554,59.74669391644024,-11.521359554960688,24.021923388606904,37.99993196567857,-13.978008577071666,49.89304791294141,55.82127510907464,-5.928227196133215,-7.045544641983075,924.781269652108,857.2956633983462,31.16,53.2,-22.040000000000003,599.59,388.480307646356,44.3,57.833318,-13.533318000000001,810.3393817204301,680.6525138142174,180.0
19800201,35.80143372667044,16.690737172743138,19.110696553927305,67.68309881487352,59.673644746456105,8.009454068417416,38.31108517786176,33.91243852275026,4.398646655111508,56.168136546524345,40.024129874169496,16.14400667235485,16.55158559258039,14.511476326489554,2.040109266090837,32.022786141057544,18.63488427323541,13.387901867822134,8.796023705959348,374.48275025034775,464.5458042798765,27.11,28.3,-1.1900000000000013,401.22,389.0355132503193,33.0,32.078306,0.9216940000000022,482.2599377394636,494.19254350255426,530.0
19800301,133.48064025514964,14.734912900619197,118.74572735453044,198.63845677500584,47.939048252050135,150.69940852295574,130.783457181698,27.25057002961952,103.53288715207847,157.9257451803478,21.543251895256667,136.38249328509116,61.45505048366087,10.414845325917936,51.04020515774293,133.77921338052946,15.151403741506874,118.6278096390226,112.0565607513782,919.5109471892638,1992.8424384066352,97.57,13.79,83.78,1746.64,2549.1250283751497,96.6,14.004241,82.59575899999999,1297.8839979091995,2095.4725074671446,2780.0
19800401,90.23269712290198,20.404736817919886,69.82796030498208,131.9485532763324,62.80919782002394,69.13935545630846,100.32076200011508,30.080860346460145,70.23990165365494,127.95022979388466,11.2495539832364,116.70067581064826,47.36718419814798,1.2664708640629163,46.10071333408506,61.79572955697412,13.990150051117146,47.805579505856976,69.99724515211074,1225.3669726109133,1918.1830699787376,85.12,1.43,83.69,1377.97,2206.3137307098764,90.2,4.76953,85.43047,1293.6375385802467,2138.728283179012,2220.0
19800501,80.39805701968822,68.5435213859278,11.854535633760408,129.53148791840135,89.17594313338047,40.35554478502088,107.50311432331112,49.18887381649282,58.3142405068183,85.90175954646526,23.717850335296365,62.183909211168896,34.96723794956391,5.524273957807034,29.442963991756876,67.17987796639218,15.93723768254926,51.24264028384293,48.30785975572157,422.8538615162214,885.5697150231796,61.13,5.97,55.16,457.16,985.508939665472,68.8,6.812782,61.987218,619.727635902031,1206.193043234767,1150.0
19800601,123.99906991017002,135.62115061826572,-11.622080708095693,186.4691883992184,129.60510236443932,56.86408603477911,127.4412728919916,84.68235191057602,42.75892098141557,114.27715548127637,45.81375829539877,68.46339718587761,45.55099552186147,58.44394382009315,-12.892948298231678,133.88572800259834,30.42508324469936,103.460644757899,51.73082013234792,554.531654271918,1066.551017888965,109.05,41.34,67.71,760.27,1430.4474884259257,103.7,41.042939,62.657061000000006,618.6101466049382,1242.066237654321,1360.0
19800701,154.42679924481186,155.00822739043275,-0.5814281456208676,166.63434598449334,124.53399507865272,42.1003509058406,128.45035808315777,84.27129039260872,44.17906769054904,76.09782681338262,52.76059943441874,23.33722737896389,38.6399320958193,28.92176447069671,9.71816762512259,142.29641533657215,41.40722243418463,100.88919290238752,44.04480130057273,244.64354291888736,666.525777598619,139.26,53.78,85.47999999999999,348.92,1167.688443847073,149.8,54.765134,95.03486600000001,332.3732452210275,1241.1755667562725,1030.0
19800801,200.22530882129465,132.68358023974363,67.54172858155098,227.2714741085476,134.81933989158034,92.45213421696724,79.39728484679404,92.80145655384256,-13.40417170704852,68.78127257397998,61.63087085600701,7.150401717972954,31.428881828735967,28.94203835312872,2.486843475607249,118.10629246052508,50.27066817866328,67.8356242818618,31.304166397072155,391.7077331801336,691.5540552070474,126.36,84.21,42.150000000000006,498.68,902.41291890681,129.0,83.356959,45.643041,413.7903225806452,847.1475634707288,1020.0
19800901,106.4124782805181,124.08631603109934,-17.67383775058124,120.26063857456026,125.52318894500138,-5.262550370441119,44.31511371630042,95.33417187696293,-51.01905816066251,40.59781982912865,67.7548147182218,-27.15699488909315,24.374534519185428,74.9826123618632,-50.60807784267777,110.39288158911808,87.37258037979693,23.020301209321147,-22.20527601071068,309.85465974087515,90.07211496665352,104.7,173.71,-69.01,265.33,-417.7145794753087,108.1,175.501935,-67.40193500000001,345.4319058641975,-325.47999652777776,-260.0
19801001,107.82637113531248,98.17716330011493,9.649207835197544,111.51874979296984,113.27777251587364,-1.759022722903813,73.13698234184159,103.7555706947968,-30.618588352955207,73.68376625229111,74.1716255792999,-0.4878593270087954,67.10690342903366,162.4724152563416,-95.36551182730796,60.76867579960464,112.026370915626,-51.25769511602136,-35.89773546923943,309.5135414689299,-34.33218861744173,91.6,235.28,-143.68,262.75,-1113.48596176822,106.8,242.072237,-135.27223700000002,454.97778524492236,-849.2174729316009,-1030.0
19801101,63.2071605549932,63.39971342604009,-0.1925528710468858,62.23536358816642,64.8781158359382,-2.6427522477717718,45.341228103281935,61.62594196747423,-16.284713864192295,45.20205765879,55.58532634746431,-10.383268688674308,37.3433302978331,101.95198596589525,-64.60865566806214,53.63221006451889,75.76429293464699,-22.132082870128105,-23.210294667765723,308.8153264307728,79.0853458360468,42.42,135.63,-93.21,248.39,-674.1804282407408,51.9,135.632418,-83.732418,509.7347608024691,-319.77591608796297,-160.0
19801201,75.6002844181252,56.29376763666507,19.30651678146012,90.69875949345058,46.90957147049256,43.78918802295803,58.82373753764456,56.05841350729606,2.765324030348504,81.04477702954249,45.34772404401754,35.697052985524955,55.11024553708733,65.04554562557541,-9.935300088488091,57.81137915471108,62.592784795147736,-4.781405640436659,13.50697186198135,498.4074082145648,627.7836638594018,56.13,83.63,-27.499999999999996,448.99,185.58180854241343,58.5,85.582888,-27.082887999999997,574.7087813620071,311.8130385678017,570.0
19810101,30.375222324318543,14.194634376737003,16.180587947581543,59.36214273050988,56.218628792862994,3.143513937646886,36.19489628059255,39.73393785104987,-3.539041570457323,54.76081592031975,36.13155341341159,18.62926250690817,16.488790001645825,10.038666004010942,6.4501239976348845,37.27773780815452,51.01495869287437,-13.73722088471985,2.189327597402553,270.01031654544414,290.9807464705347,24.95,30.96,-6.010000000000002,247.66,190.0933370669056,35.0,36.21835,-1.218350000000001,341.9517249103943,334.0121230958781,-250.0
19810201,106.23683288865138,4.672287342756301,101.56454554589509,148.4859804754227,38.103973533433695,110.38200694198902,120.5131065854642,22.614135687634786,97.8989708978294,109.72800405625226,15.756340799683564,93.97166325656868,69.98678169054739,4.232305498760831,65.75447619178655,99.03494122646627,8.542833179378976,90.4921080470873,91.6998450670522,918.9453366028278,1891.39884404133,90.13,10.94,79.19,1936.98,2776.7697858796296,98.9,14.202297,84.697703,1335.1374421296296,2237.369029224537,2680.0
19810301,31.54931472516614,19.93817997881832,11.611134746347824,52.93288515817252,53.291082544480304,-0.3581973863077929,41.49205979076544,27.620934487055305,13.871125303710135,50.18081472778962,25.43804165646818,24.742773071321444,21.29062576462463,17.889372960177337,3.4012528044472923,27.951624155501523,26.49535382964771,1.456270325853814,8.622644823804979,588.0109545988662,670.6027829123058,29.51,15.87,13.640000000000002,527.3,657.950462962963,25.9,16.87643,9.02357,586.2029569892474,678.300039202509,680.0
19810401,171.7910650730406,31.71118977149161,140.079875301549,159.7905510722609,65.47277643940083,94.31777463286008,112.4727714825753,34.944394154782515,77.52837732779277,118.67866386150408,14.994488015810823,103.68417584569326,47.85669459987949,2.332718029587998,45.52397657029149,101.54660764605336,23.01460416986518,78.53200347618817,79.91726157056515,586.8016535506273,1377.8037158935476,122.1,2.24,119.86,998.98,2185.3257947530865,115.4,5.724939,109.675061,978.8886959876543,2067.6771961805557,2070.0
19810501,94.78085648287087,76.50473092997231,18.276125552898577,92.48020749222096,93.48361937887408,-1.0034118866531303,100.02555014159763,56.658456130267936,43.367094011329705,91.78095933835031,35.20464839743529,56.57631094091505,25.44255730328729,12.676465729185884,12.76609157410141,62.29196223836514,23.658717549071483,38.63324468929366,30.067865865797337,664.5261141789416,952.5305566770865,59.31,15.05,44.260000000000005,724.57,1148.513511051374,65.9,15.626217,50.27378300000001,795.97166218638,1280.390820452509,1200.0
19810601,139.6472091577281,128.19916828850452,11.44804086922358,175.03403773220464,121.66111127368768,53.372926458516936,150.55155713298888,82.64230897708849,67.90924815590041,101.14647741642156,38.12931733933249,63.01716007708908,36.250982848731056,25.68991322148728,10.561069627243777,92.0586320908112,31.85682229312424,60.20180979768696,51.01244282328744,1078.840642552699,1583.749678290137,129.61,30.83,98.78000000000002,1504.02,2481.720964506173,133.1,29.943693,103.156307,1025.4081790123457,2049.3633665123457,2420.0
19810701,138.14189703792857,166.28274221935337,-28.1408451814248,156.5778722924684,153.3285583023791,3.249313990089342,180.5157731976479,112.8234213200038,67.6923518776441,126.46454072663118,64.63400287778335,61.83053784884783,30.156569666943025,48.9870087241682,-18.83043905722517,85.61785662770096,65.7272592472333,19.890597380467653,26.76647240796475,393.07741056887374,649.4595228845606,104.9,74.85,30.05000000000001,328.86,616.6933146654721,110.7,75.971571,34.728429000000006,318.00552568697736,656.5099557571684,280.0
19810801,113.87859321444864,137.65084443818833,-23.77225122373972,141.6974681917248,140.63548292207363,1.0619852696511742,71.115448822531,107.0629862155422,-35.947537393011224,60.18989116883834,62.73758655044212,-2.5476953816037686,28.24183431513788,65.46154292216477,-37.21970860702689,73.2089290090103,68.62788579103778,4.581043217972521,-14.014382578803636,258.43805873958814,124.2015798495018,88.84,99.35,-10.509999999999993,237.22,136.55017846475516,91.0,98.542926,-7.542925999999994,269.15527927120667,199.82336973566308,150.0
19810901,182.6662660794497,111.38169531507668,71.28457076437303,194.1484400335977,119.5191133816942,74.6293266519035,122.1946240277296,95.04712799759834,27.147496030131247,156.8224423315343,66.36559014529035,90.45685218624392,81.6770323873661,110.73608141427368,-29.05904902690757,130.344418606763,92.36923708997696,37.97518151678603,40.22996147163143,687.5809846313671,1085.767582453398,147.47,181.01,-33.53999999999999,849.64,517.669050925926,154.4,182.800733,-28.400733000000002,783.9027777777778,505.70241242283953,600.0
19811001,121.28364947155032,77.23285147837879,44.05079799317152,110.48905237087676,92.47268058857922,18.01637178229754,73.96045553070081,85.1233582692317,-11.162902738530896,106.77075089526848,54.69999868307758,52.07075221219092,58.41363496464984,141.39943192198075,-82.98579695733093,105.24581460166218,86.65892387579328,18.5868907258689,-1.0949369951008925,693.7206296554256,683.2327978867153,92.19,187.61,-95.42000000000002,806.71,-107.26853195937883,120.7,194.22732,-73.52731999999999,908.0398745519714,200.51972520908004,370.0
19811101,58.02884850032034,62.448725434372136,-4.419876934051789,70.7446472453371,62.25836436970364,8.486282875633469,61.67892672899839,62.648894569150656,-0.9699678401522678,63.42583867877344,62.8182832861625,0.6075553926109387,42.02080931206557,71.73607356201033,-29.715264249944767,45.36661109892233,66.33271105634698,-20.96609995742465,-8.511498755855449,579.6829870430753,495.43819515207537,50.76,130.56,-79.80000000000001,562.17,-227.67143518518537,57.5,130.856342,-73.35634200000001,694.8229166666666,-36.549467013888886,60.0
19811201,98.97753802445192,58.11713101470491,40.86040700974701,126.59605247661216,54.387559545689314,72.20849293092284,92.02226120283012,65.37997500053325,26.642286202296862,89.98266291756393,65.63808794243678,24.34457497512714,64.7405402625057,59.04014160940454,5.700398653101164,91.3182259376941,64.66124980823992,26.65697612945417,31.110545778180438,561.9838584064236,859.9755892678404,70.98,99.25,-28.27,699.47,428.686379181601,72.6,100.698227,-28.09822700000001,592.9078927718041,317.8446072281959,570.0
19820101,149.604238849527,31.61702454133842,117.98721430818858,207.64105393182572,64.720652895956,142.92040103586976,143.63920214488854,58.15314522156548,85.48605692332305,142.9614731959768,69.49417195947964,73.46730123649715,100.71818726524224,33.70569065370257,67.01249661153969,149.14853431369158,83.44736857408549,65.7011657396061,86.91748430936715,758.5548217546556,1591.092179862785,83.97,51.02,32.95,852.21,1167.8209057646357,104.5,54.58772,49.91228,832.3698850059737,1318.1980376344086,1370.0
19820201,64.64515649814595,11.19774710520463,53.44740939294132,73.51907589237587,28.613304503086308,44.90577138928956,52.41131544424556,17.86095393173468,34.550361512510875,71.05661568085948,32.288595399374415,38.768020281485065,42.03597668238489,8.926777610471117,33.10919907191378,61.21228221331359,12.407764785702556,48.80451742761103,40.027573936562064,1094.9699755255133,1519.4522049164275,40.25,12.38,27.87,1131.83,1427.384253472222,47.9,16.181298,31.718701999999997,873.8310185185185,1204.5293981481482,1540.0
19820301,107.16234059856136,12.06694145097782,95.09539914758356,155.70429948290354,32.934453464045134,122.7698460188584,144.05261298739313,23.71630058180778,120.33631240558536,135.4043788694229,18.138286555359112,117.2660923140638,84.61012095578079,7.174330211977537,77.43579074380324,88.19713212316786,15.39759555071756,72.79953657245031,102.12151561095224,1686.8431881025674,2665.012051229426,84.31,12.39,71.92,3027.6,3716.484259259259,90.1,12.484888,77.615112,2169.5256496415773,2913.5905725433095,3640.0
19820401,73.79109982886975,34.46672863377794,39.32437119509181,104.05462975169544,69.85044816558502,34.20418158611041,91.52278769103708,44.65034166754344,46.872446023493616,102.93980258915848,30.544270310452458,72.39553227870601,33.65804903721104,13.47147470893212,20.18657432827893,62.48664432413904,36.7001571685794,25.78648715555965,39.88904427442972,912.2929796086624,1307.105260033236,50.12,13.64,36.48,1372.53,1733.6003703703702,66.0,16.499396,49.500603999999996,1178.8234953703704,1673.0920127314812,1990.0
19820501,101.7829117946787,50.602002780278575,51.18090901440012,120.74886272554376,76.82202605675941,43.92683666878434,61.10278186339855,43.4193512630566,17.683430600341943,86.9454372895609,28.46633258520741,58.47910470435349,41.78435121257124,1.035799508536008,40.74855170403523,55.13246221867973,9.262342543706982,45.87011967497275,41.34160867049755,286.1648323133948,682.1545912895054,73.69,-2.35,76.03999999999999,490.57,1218.9175955794503,80.2,-1.218543,81.418543,545.9733422939069,1323.3780794504182,1240.0
19820601,146.06657091121878,125.97901209038288,20.08755882083589,164.7925229126072,91.83704417297896,72.95547873962823,147.0185335931071,58.69806349849391,88.32047009461314,158.936895686906,44.59767490097346,114.33922078593254,50.7039808823458,37.08330661439643,13.620674267949376,89.60074574283074,20.223860534242156,69.37688520858859,71.72254581934237,436.2239902496338,1146.1167035965584,113.87,29.03,84.84,575.38,1415.1061574074074,104.9,32.864007,72.035993,472.1232638888889,1187.324683449074,1150.0
19820701,84.27845917147654,156.90047134245015,-72.62201217097362,119.28305815512137,124.30367940745616,-5.020621252334792,70.49016621959638,80.299796270942,-9.809630051345628,75.05767659912671,66.91143317578147,8.146243423345238,21.80408596968748,30.530580621081008,-8.726494651393526,35.80299863268771,43.79765212686361,-7.994653494175898,-4.681031205180918,373.1687013364487,328.3315390123312,59.02,56.72,2.3000000000000043,352.45,374.4805032855437,68.8,60.555259,8.244740999999998,320.87906959378734,399.7932902105735,110.0
19820801,93.05029942074812,149.2165319498554,-56.16623252910728,103.50262867354364,144.32746959707117,-40.82484092352753,48.68421950079048,94.98971587569882,-46.30549637490833,68.85505225475075,96.4928784243078,-27.63782616955704,19.74000695757337,102.52276607780048,-82.7827591202271,61.99285772208256,90.3680860062536,-28.37522828417105,-45.18523017447821,156.6332223054262,-276.17258718017666,66.6,128.31,-61.71000000000001,135.42,-455.66798163082456,66.2,129.441585,-63.241585,214.557945041816,-386.7847569444445,-520.0
19820901,94.2475343813022,97.60469712680587,-3.357162745503665,105.62887499606704,93.98053378547708,11.64834121058999,72.58173674016362,69.76237897067517,2.819357769488448,73.33068905474195,68.92249121775876,4.4081978369831845,48.15833226092126,91.37022290244022,-43.21189064151896,80.17782596899882,58.36460005305487,21.813225915943946,-0.5045535817026818,170.90699617993087,165.91304473757663,103.26,121.45,-18.19,162.88,-17.16029706790121,104.2,125.929862,-21.729861999999997,283.07600308641975,75.04186477623456,-30.0
19821001,43.50404281016036,79.73315992673619,-36.22911711657584,43.18529467407825,92.6557193929644,-49.47042471888615,49.428363911528734,73.44061311711049,-24.01224920558176,24.97691608936225,76.81963025045592,-51.84271416109366,26.32521011574915,84.47730178288306,-58.15209166713391,21.771388494636604,79.94706377308724,-58.17567527845063,-48.33063100622922,197.47580203768467,-265.4581654297625,46.96,168.23,-121.26999999999998,147.96,-1013.62223192951,70.8,176.046842,-105.246842,351.5302045997611,-654.4946436305257,-740.0